Location: Balcones
(3.7244°N, 75.6017°W)
Time: 00:38:36
(UTC+00:00)

Spot 4 Rocket - Pass Details

Date: 13 December 2025
Orbit: 769 x 773 km, 98.8° (Epoch: 20 January)

Event Time Altitude Azimuth Distance (km) Brightness Sun altitude
Rises 23:35:00 0° 155° (SSE) 3,235 7.2 -10.2°
Reaches altitude 10° 23:37:24 10° 149° (SSE) 2,308 6.4 -10.8°
Maximum altitude 23:42:14 45° 77° (ENE) 1,045 4.3 -11.9°
Drops below altitude 10° 23:47:03 10° 5° (N) 2,304 6.2 -13.0°
Sets 23:49:26 0° 359° (N) 3,230 7.0 -13.5°
